Precipitable_Water
1.24 1.32 1.20 1.01 0.57 0.54 0.41 0.47 0.62 0.70 0.83 1.06 0.99 0.96 0.99 1.10 0.90 0.69 1.55 1.49 1.41 1.42 1.51 1.54 1.51 1.45 1.36 1.32 1.19 1.07 1.40 1.28 0.91 0.82 1.02 1.31 1.55 1.69 1.64 1.56 1.50 1.33 0.87 0.82 0.90 1.00 1.05 1.06 1.07
1.22 1.18 1.10 0.82 0.52 0.39 0.38 0.49 0.52 0.64 0.86 0.98 1.06 1.09 1.05 1.02 1.37 1.36 1.39 1.56 1.48 1.49 1.52 1.50 1.52 1.47 1.41 1.28 1.16 1.18 1.36 1.07 0.87 0.79 0.84 1.14 1.41 1.59 1.49 1.39 1.22 0.92 0.84 0.87 0.95 1.01 1.06 1.06 1.03
1.14 1.17 0.81 0.65 0.53 0.40 0.34 0.45 0.57 0.71 0.87 0.90 0.98 1.10 1.17 1.18 1.48 1.45 1.65 1.72 1.60 1.53 1.53 1.49 1.52 1.50 1.39 1.24 1.22 1.40 1.20 1.00 0.90 0.84 0.91 0.91 1.18 1.36 1.35 1.22 1.03 0.87 0.87 0.86 0.97 1.03 1.03 1.01 1.04
0.95 0.95 0.86 0.59 0.49 0.46 0.43 0.43 0.55 0.72 0.91 0.90 0.93 0.92 1.25 1.57 1.58 1.66 1.79 1.84 1.65 1.52 1.51 1.47 1.51 1.47 1.37 1.22 1.27 1.36 1.19 1.05 0.89 0.86 0.94 0.95 0.96 1.09 1.08 0.97 0.90 0.88 0.88 0.88 0.98 1.00 0.98 1.01 1.04
0.93 0.78 0.59 0.54 0.51 0.51 0.51 0.51 0.56 0.69 0.77 0.86 0.88 0.87 1.04 1.45 1.84 1.93 1.82 1.79 1.56 1.50 1.51 1.50 1.51 1.44 1.36 1.22 1.20 1.34 1.18 1.09 1.00 0.90 0.90 0.94 0.96 1.01 0.96 0.94 0.88 0.91 0.89 0.86 0.92 0.96 0.98 0.99 1.00
0.56 0.68 0.49 0.44 0.47 0.52 0.58 0.57 0.55 0.58 0.71 0.74 0.77 0.80 0.99 1.48 1.59 1.81 1.82 1.71 1.63 1.51 1.53 1.56 1.53 1.45 1.35 1.16 1.12 1.35 1.27 1.15 1.05 0.94 0.94 0.94 0.97 1.00 0.97 0.94 0.94 0.94 0.91 0.88 0.88 0.91 0.94 0.93 0.93
0.46 0.49 0.48 0.45 0.38 0.51 0.56 0.64 0.55 0.54 0.62 0.71 0.80 0.77 1.04 1.22 1.48 1.61 1.82 1.74 1.52 1.58 1.59 1.59 1.60 1.50 1.34 1.14 1.11 1.26 1.41 1.24 1.10 0.97 0.91 0.91 0.92 0.95 0.97 0.98 0.98 0.99 0.97 0.94 0.92 0.92 0.91 0.90 0.91
0.55 0.53 0.41 0.55 0.45 0.40 0.60 0.62 0.61 0.56 0.61 0.93 0.99 0.81 0.86 1.14 1.31 1.56 1.89 1.71 1.53 1.55 1.65 1.65 1.65 1.54 1.36 1.24 1.14 1.18 1.43 1.39 1.23 1.11 1.00 0.93 0.92 0.94 0.97 0.98 0.99 1.01 1.00 0.98 0.96 0.94 0.93 0.92 0.90
0.66 0.43 0.34 0.45 0.52 0.43 0.60 0.57 0.68 0.76 0.69 0.86 0.97 1.05 1.15 1.21 1.27 1.37 1.55 1.72 1.65 1.60 1.67 1.73 1.67 1.54 1.42 1.24 1.14 1.20 1.39 1.51 1.37 1.26 1.10 1.05 1.00 0.99 0.98 0.97 0.96 0.95 0.95 0.95 0.95 0.94 0.92 0.89 0.87
0.45 0.38 0.33 0.47 0.66 0.57 0.60 0.64 0.63 0.71 0.75 0.81 0.94 1.18 1.25 1.24 1.17 1.20 1.22 1.28 1.62 1.62 1.72 1.74 1.69 1.52 1.46 1.29 1.18 1.25 1.30 1.44 1.47 1.33 1.22 1.15 1.11 1.04 1.00 0.99 0.97 0.95 0.94 0.94 0.93 0.91 0.87 0.86 0.83
0.47 0.36 0.41 0.53 0.67 0.72 0.68 0.68 0.72 0.68 0.70 0.80 0.83 1.06 1.16 1.22 1.21 1.18 1.15 1.24 1.62 1.66 1.89 1.80 1.78 1.62 1.45 1.29 1.22 1.34 1.36 1.35 1.44 1.38 1.26 1.22 1.16 1.14 1.09 1.06 1.02 0.98 0.95 0.91 0.91 0.89 0.85 0.83 0.82
0.44 0.43 0.52 0.55 0.65 0.73 0.69 0.76 0.69 0.72 0.74 0.89 1.01 1.08 1.16 1.15 1.14 1.17 1.28 1.31 1.34 1.36 1.69 1.85 1.83 1.72 1.55 1.41 1.26 1.28 1.37 1.37 1.38 1.42 1.34 1.19 1.16 1.14 1.12 1.10 1.05 0.97 0.94 0.85 0.87 0.87 0.89 0.91 0.91
0.46 0.45 0.52 0.63 0.66 0.76 0.80 0.71 0.74 0.73 0.85 0.98 1.11 1.21 1.13 1.08 1.08 1.23 1.31 1.39 1.50 1.31 1.25 1.45 1.67 1.78 1.67 1.49 1.37 1.28 1.22 1.33 1.42 1.41 1.32 1.17 1.16 1.14 1.13 1.09 1.06 1.02 0.95 0.92 0.92 0.97 0.98 0.98 0.97
0.47 0.48 0.51 0.61 0.64 0.74 0.65 0.70 0.76 0.77 0.90 0.96 1.00 1.07 1.15 1.11 1.12 1.24 1.32 1.26 1.35 1.34 1.28 1.38 1.50 1.64 1.78 1.59 1.49 1.40 1.37 1.29 1.23 1.21 1.17 1.12 1.12 1.11 1.09 1.03 1.03 1.07 1.05 1.04 1.00 0.98 0.99 1.00 1.02
0.50 0.43 0.48 0.55 0.70 0.70 0.74 0.67 0.68 0.82 0.87 0.88 0.94 1.03 1.14 1.17 1.20 1.20 1.29 1.25 1.29 1.34 1.29 1.36 1.55 1.57 1.69 1.67 1.59 1.52 1.51 1.46 1.39 1.36 1.31 1.25 1.26 1.23 1.17 1.11 1.04 1.05 1.10 1.05 1.05 1.00 1.00 0.99 1.05
0.42 0.50 0.34 0.48 0.67 0.73 0.72 0.49 0.71 0.87 0.84 0.85 0.89 0.95 1.02 1.11 1.19 1.24 1.30 1.32 1.35 1.41 1.39 1.46 1.58 1.58 1.52 1.65 1.71 1.59 1.57 1.47 1.47 1.45 1.46 1.41 1.32 1.31 1.26 1.20 1.11 1.09 1.08 1.04 1.01 1.02 0.99 1.02 1.04
0.38 0.32 0.31 0.39 0.64 0.68 0.68 0.51 0.72 0.91 0.86 0.83 0.86 0.84 0.87 0.96 1.11 1.23 1.35 1.36 1.34 1.43 1.52 1.52 1.55 1.58 1.53 1.54 1.70 1.66 1.67 1.63 1.53 1.52 1.52 1.53 1.44 1.39 1.35 1.28 1.22 1.19 1.12 1.09 1.09 1.10 1.11 1.08 1.11
0.27 0.28 0.35 0.35 0.52 0.61 0.62 0.55 0.71 0.84 0.83 0.80 0.81 0.84 0.81 0.84 0.98 1.12 1.24 1.29 1.37 1.48 1.50 1.55 1.55 1.54 1.74 1.70 1.64 1.69 1.73 1.66 1.58 1.54 1.52 1.54 1.51 1.46 1.43 1.34 1.29 1.25 1.17 1.14 1.17 1.16 1.18 1.15 1.13
0.35 0.32 0.34 0.42 0.57 0.52 0.59 0.56 0.63 0.77 0.79 0.77 0.77 0.77 0.79 0.80 0.88 0.99 1.15 1.28 1.36 1.43 1.51 1.53 1.50 1.55 1.60 1.60 1.54 1.62 1.57 1.63 1.58 1.64 1.60 1.61 1.60 1.53 1.46 1.40 1.35 1.30 1.21 1.18 1.23 1.21 1.14 1.15 1.22
0.37 0.33 0.36 0.46 0.58 0.60 0.57 0.58 0.67 0.70 0.79 0.80 0.77 0.77 0.77 0.79 0.82 0.84 0.89 0.99 1.17 1.29 1.38 1.45 1.53 1.62 1.55 1.53 1.49 1.56 1.60 1.61 1.58 1.56 1.49 1.47 1.49 1.51 1.45 1.40 1.39 1.36 1.34 1.33 1.28 1.20 1.16 1.20 1.26
0.38 0.31 0.38 0.37 0.48 0.57 0.55 0.51 0.57 0.72 0.79 0.79 0.79 0.79 0.78 0.75 0.75 0.77 0.81 0.85 0.91 1.09 1.22 1.38 1.47 1.47 1.52 1.59 1.58 1.53 1.57 1.55 1.48 1.47 1.43 1.44 1.50 1.53 1.47 1.42 1.41 1.41 1.43 1.37 1.31 1.31 1.26 1.16 1.20
0.32 0.43 0.43 0.44 0.43 0.37 0.52 0.34 0.51 0.58 0.63 0.73 0.71 0.74 0.73 0.74 0.77 0.76 0.76 0.78 0.82 0.91 1.10 1.23 1.31 1.38 1.42 1.49 1.47 1.40 1.27 1.31 1.45 1.50 1.57 1.57 1.60 1.54 1.45 1.50 1.49 1.48 1.47 1.41 1.38 1.37 1.31 1.22 1.02
0.32 0.47 0.46 0.46 0.41 0.42 0.43 0.37 0.40 0.52 0.51 0.57 0.66 0.68 0.72 0.73 0.73 0.74 0.73 0.74 0.82 0.87 0.93 1.11 1.21 1.28 1.38 1.43 1.48 1.41 1.33 1.39 1.43 1.53 1.57 1.59 1.63 1.64 1.62 1.60 1.57 1.54 1.48 1.42 1.35 1.25 1.19 1.20 1.12
0.55 0.49 0.47 0.47 0.44 0.32 0.41 0.38 0.34 0.41 0.49 0.56 0.61 0.66 0.68 0.72 0.74 0.77 0.79 0.79 0.78 0.81 0.85 0.97 1.14 1.15 1.27 1.35 1.36 1.34 1.32 1.36 1.39 1.42 1.45 1.51 1.53 1.56 1.60 1.55 1.45 1.38 1.37 1.34 1.31 1.26 1.15 1.04 0.98
0.50 0.42 0.30 0.28 0.28 0.26 0.41 0.37 0.36 0.43 0.49 0.54 0.56 0.60 0.65 0.70 0.70 0.73 0.74 0.77 0.79 0.79 0.82 0.89 1.00 1.05 1.18 1.25 1.28 1.32 1.29 1.32 1.33 1.37 1.39 1.34 1.38 1.39 1.47 1.41 1.32 1.27 1.25 1.24 1.13 1.01 0.99 0.99 0.97
0.42 0.40 0.32 0.22 0.23 0.26 0.38 0.30 0.34 0.45 0.49 0.52 0.52 0.55 0.63 0.64 0.65 0.68 0.71 0.72 0.74 0.78 0.84 0.89 0.88 0.89 0.96 1.08 1.17 1.28 1.31 1.33 1.35 1.36 1.39 1.37 1.34 1.30 1.33 1.35 1.28 1.22 1.19 1.14 1.08 1.04 1.03 1.01 0.95
0.39 0.33 0.40 0.33 0.34 0.30 0.33 0.34 0.39 0.41 0.45 0.48 0.47 0.50 0.56 0.58 0.61 0.64 0.68 0.69 0.71 0.72 0.79 0.86 0.88 0.90 0.90 0.89 0.95 1.02 1.10 1.17 1.20 1.26 1.33 1.27 1.22 1.26 1.29 1.24 1.20 1.16 1.07 1.06 1.02 0.96 0.94 0.93 0.92
0.41 0.42 0.26 0.28 0.23 0.21 0.28 0.27 0.28 0.35 0.36 0.42 0.46 0.48 0.51 0.55 0.56 0.57 0.56 0.55 0.57 0.60 0.67 0.73 0.78 0.82 0.83 0.82 0.80 0.81 0.87 0.95 1.06 1.12 1.15 1.16 1.17 1.16 1.16 1.12 1.09 1.05 1.07 1.03 0.96 0.92 0.92 0.92 0.92
0.38 0.33 0.33 0.32 0.27 0.20 0.19 0.23 0.34 0.37 0.42 0.39 0.41 0.46 0.47 0.47 0.51 0.52 0.53 0.53 0.52 0.52 0.52 0.55 0.57 0.55 0.62 0.70 0.71 0.74 0.77 0.83 0.90 0.95 1.01 1.05 1.07 1.06 1.06 1.05 1.06 1.03 1.01 0.93 0.93 0.92 0.91 0.90 0.87
0.43 0.37 0.34 0.25 0.24 0.26 0.22 0.21 0.36 0.38 0.42 0.45 0.43 0.44 0.46 0.47 0.48 0.49 0.50 0.51 0.50 0.50 0.50 0.49 0.51 0.53 0.56 0.59 0.64 0.66 0.69 0.72 0.77 0.83 0.86 0.92 0.95 1.02 1.01 1.01 0.99 0.95 0.89 0.89 0.89 0.89 0.88 0.84 0.80
Wind_Speed
32 32 33 33 32 31 38 34 29 27 30 28 25 24 22 22 20 20 17 21 22 21 20 19 17 14 12 11 10 10 10 9 9 9 11 11 11 11 10 8 7 6 5 6 7 7 7 7 7
32 32 33 33 33 32 35 39 33 29 32 34 25 24 22 22 21 19 19 22 23 22 21 19 17 15 14 12 11 12 11 10 9 10 11 11 11 10 9 8 7 6 7 7 7 7 7 7 7
31 32 33 34 34 35 35 35 40 26 29 31 28 25 23 22 22 23 20 23 24 22 21 20 18 17 15 13 13 13 12 10 10 10 11 11 11 10 8 7 7 7 8 8 8 7 6 6 7
30 31 33 34 36 38 35 33 30 29 29 35 34 27 23 23 24 24 23 24 25 23 22 21 19 18 16 15 14 14 12 11 11 11 11 11 11 10 8 8 8 8 8 7 7 6 6 6 6
31 31 33 33 37 36 37 31 29 29 32 32 33 30 27 22 21 23 25 25 26 24 23 22 20 18 17 16 16 15 13 13 12 11 11 11 11 10 10 9 9 8 7 7 6 6 5 4 4
31 33 32 35 40 38 36 35 31 31 30 33 33 34 33 28 21 24 25 26 27 25 24 23 21 19 18 17 17 15 15 13 12 12 12 11 11 10 10 9 8 8 7 6 5 4 3 2 2
32 34 33 38 39 37 38 36 32 33 30 30 31 32 29 32 26 23 26 27 28 27 25 24 22 20 19 17 17 17 15 14 13 13 12 12 11 10 10 9 8 7 6 5 4 3 2 1 0
31 33 40 33 37 38 37 37 34 33 33 29 29 30 30 36 34 27 25 28 29 29 27 26 24 21 20 18 18 18 16 16 14 13 13 12 11 10 9 8 7 6 5 4 3 2 2 2 2
29 34 39 40 35 37 36 37 34 31 31 32 31 29 30 34 31 30 27 28 30 31 29 28 25 23 21 19 19 18 18 16 15 14 13 12 11 10 9 8 7 6 5 5 4 4 4 5 5
34 36 42 39 36 32 33 34 35 30 31 33 32 30 30 36 32 30 27 29 34 32 31 29 26 24 22 20 19 19 18 17 16 14 13 12 11 10 9 8 7 6 6 6 6 6 6 6 7
36 38 39 40 38 31 31 30 33 32 32 34 35 34 35 36 31 28 28 22 37 33 30 29 27 26 24 22 21 20 18 18 17 16 14 12 11 10 10 9 9 8 8 8 8 8 8 8 8
37 40 37 41 34 35 30 29 31 33 32 31 31 35 36 35 33 28 30 25 29 30 27 29 28 28 26 24 22 21 19 18 17 16 15 13 12 12 11 11 11 11 10 10 10 10 10 10 10
42 36 38 38 37 34 30 30 30 32 30 30 30 32 36 34 30 30 30 28 30 25 26 29 28 30 28 27 24 22 21 20 19 18 17 15 14 14 13 13 13 12 12 11 11 11 11 11 12
34 38 36 36 38 33 36 31 27 33 30 31 33 34 33 33 30 29 29 29 28 27 21 24 28 32 30 28 27 24 22 21 20 19 19 18 16 16 15 15 15 14 14 13 12 12 12 12 13
36 31 37 36 33 32 33 35 29 30 31 32 32 33 32 31 31 31 29 29 29 28 24 23 27 30 29 29 28 27 25 23 22 21 20 19 19 18 17 17 17 16 16 16 15 14 14 14 14
39 27 35 36 32 31 33 32 32 26 29 31 31 30 30 29 32 30 29 30 28 28 27 25 25 23 32 28 27 27 26 25 23 23 23 22 21 20 19 19 19 18 18 18 16 16 16 16 16
35 24 34 31 33 27 27 29 31 25 27 29 28 28 27 29 28 30 29 28 28 29 29 27 25 26 27 29 27 27 27 26 25 24 24 24 24 23 21 21 21 20 20 19 18 18 18 18 18
31 28 28 32 29 31 27 30 30 28 26 27 28 27 26 26 28 29 29 29 28 29 29 28 27 26 28 26 26 28 27 25 26 26 26 26 26 24 23 23 22 22 21 21 20 20 20 20 20
29 26 28 28 25 24 26 31 32 25 27 27 28 28 26 25 25 24 25 28 29 28 28 29 28 28 28 27 24 25 25 27 26 26 27 26 27 26 25 24 24 23 23 22 22 22 22 22 22
29 25 24 24 20 22 21 22 24 31 24 27 28 28 28 26 24 24 24 23 24 26 28 27 28 28 28 28 27 26 27 28 27 27 27 27 27 28 27 26 25 24 24 23 23 23 23 24 24
22 25 22 24 26 18 15 18 25 24 30 29 28 29 29 29 28 26 25 24 24 25 25 28 28 29 28 28 28 27 27 27 28 28 28 28 29 29 29 27 26 26 25 25 25 25 25 25 25
20 23 22 24 20 15 20 14 21 26 24 24 29 32 30 28 28 27 27 27 26 26 26 27 27 27 28 29 30 29 28 28 28 30 30 30 30 30 29 28 28 28 27 27 27 27 27 27 27
17 25 21 17 13 15 20 14 15 22 27 23 32 28 28 27 27 27 28 29 27 27 27 29 28 28 28 29 30 29 29 28 27 27 26 26 26 26 28 28 27 27 28 27 27 27 28 29 30
16 20 16 15 10 6 13 14 14 16 22 20 23 26 25 25 23 23 23 23 26 27 29 28 29 28 29 30 30 31 33 31 30 30 28 26 27 27 27 27 27 28 28 28 28 28 29 31 32
20 18 12 12 10 8 7 11 13 11 15 18 21 25 24 23 21 21 21 21 22 23 25 28 29 30 29 30 32 33 33 33 32 32 32 32 31 31 30 28 28 29 30 30 30 31 33 34 35
18 15 9 9 10 9 8 10 10 8 9 13 15 18 20 20 21 21 19 18 19 19 21 25 26 27 28 28 29 31 32 33 32 33 33 32 31 31 29 28 28 28 28 29 31 34 35 36 36
14 11 8 9 7 7 9 8 8 7 6 9 11 14 15 14 15 16 17 17 18 18 19 22 24 25 26 27 28 29 30 30 32 33 33 32 32 32 33 33 32 32 32 34 34 33 34 34 35
11 12 8 5 6 7 8 7 7 9 7 9 11 13 13 12 12 12 13 13 14 15 18 20 23 25 27 27 27 28 29 29 30 30 30 31 31 31 32 33 33 33 35 35 34 34 34 34 35
8 8 6 8 6 8 7 8 9 13 13 11 11 12 11 11 11 12 12 13 14 15 16 19 21 23 26 27 27 28 28 28 29 30 31 31 31 31 31 32 34 35 36 35 35 36 37 37 37
7 8 8 8 11 8 8 9 10 13 12 13 11 10 10 10 10 11 13 14 15 17 18 18 19 21 23 24 26 27 28 28 28 29 29 30 31 31 32 33 33 33 34 34 35 36 36 36 36
Wind_Direction
227 225 222 218 218 220 218 219 219 215 208 211 218 216 213 214 215 215 212 199 192 191 190 190 189 188 187 183 178 168 163 158 154 152 154 152 145 144 144 144 141 133 127 124 120 114 106 96 89
225 223 218 218 218 219 220 218 219 218 215 209 212 216 214 213 213 207 197 195 192 192 191 191 190 189 185 181 176 170 165 162 158 155 158 159 157 149 145 142 139 135 130 127 125 118 108 97 88
224 221 217 218 219 219 219 216 220 222 216 205 216 215 214 213 213 203 201 194 192 192 192 192 190 188 186 182 178 174 169 164 160 157 157 162 163 160 152 150 145 138 133 130 128 121 110 98 90
222 220 220 221 222 220 218 216 218 217 216 207 209 210 210 213 212 208 202 196 193 193 192 191 190 188 186 183 178 174 171 166 161 158 157 157 163 164 160 151 145 140 136 133 132 126 115 103 93
221 219 220 220 223 220 218 216 212 210 213 212 212 211 210 209 204 195 196 196 194 195 193 191 189 188 186 184 180 177 173 169 164 161 158 157 156 155 154 151 147 144 140 137 136 132 122 108 92
222 219 222 219 221 219 219 217 219 218 215 217 213 210 211 208 202 198 199 197 194 194 192 191 190 188 186 184 182 179 175 171 167 164 162 160 159 158 156 154 152 150 146 144 143 141 136 119 90
223 220 224 222 220 220 217 217 218 222 218 218 215 210 212 209 202 196 200 199 198 196 193 191 188 187 185 183 182 181 178 175 170 167 164 162 162 161 161 160 159 158 156 156 157 159 162 171 253
225 224 221 223 219 220 215 217 219 220 220 219 214 211 212 209 206 207 203 201 200 199 196 192 190 190 188 186 185 183 180 178 174 169 167 165 164 165 166 168 170 173 177 182 192 207 232 257 277
226 225 222 219 217 217 215 214 215 219 217 217 218 210 211 201 201 204 207 206 204 201 199 194 192 191 189 188 187 185 185 181 180 176 174 174 175 176 177 182 187 194 204 216 231 246 260 270 280
224 224 222 215 220 219 214 213 212 214 216 215 213 213 204 198 200 201 205 214 206 200 197 195 195 194 193 192 190 189 189 189 188 187 185 186 190 193 197 202 209 218 227 238 248 258 266 273 280
224 225 219 214 217 215 212 213 211 211 215 215 211 207 201 202 206 205 200 198 195 198 197 198 198 198 198 196 194 193 194 195 197 197 198 201 205 210 214 221 228 235 242 249 255 262 268 273 280
225 222 220 215 213 213 212 212 212 210 214 213 210 206 203 202 208 209 203 202 191 197 203 205 202 202 202 200 199 199 199 200 202 205 209 213 218 223 229 234 240 244 248 254 259 264 268 273 279
220 218 217 215 214 209 209 209 212 211 213 209 203 203 203 205 211 211 208 208 198 198 206 205 210 207 204 204 203 203 205 207 209 213 218 223 230 235 238 243 245 247 249 254 258 263 268 273 278
212 215 216 211 212 212 208 209 208 211 211 208 205 205 208 211 211 210 208 206 210 211 212 211 211 208 210 207 207 209 211 214 217 222 227 231 236 239 243 245 247 248 250 254 258 265 270 275 279
212 209 210 209 209 210 200 211 209 209 211 210 211 211 210 212 211 210 212 212 211 213 218 216 211 211 211 214 214 214 216 219 224 228 232 235 239 243 245 248 250 250 250 254 259 266 271 276 280
199 208 201 204 205 207 206 207 203 203 210 210 209 211 214 216 214 215 216 217 218 218 217 214 213 213 215 219 218 217 221 226 231 233 235 239 242 245 248 250 251 251 251 253 258 264 270 275 279
190 199 197 196 202 203 204 203 202 204 209 210 210 211 213 216 218 219 219 221 221 220 220 218 217 221 216 219 222 224 227 230 233 235 238 242 244 246 249 251 250 250 252 253 258 264 269 275 279
188 195 193 194 200 205 207 201 199 207 213 213 211 211 214 217 221 221 222 223 225 224 223 224 223 223 222 222 226 230 229 233 237 238 242 245 245 246 249 250 250 250 253 254 258 264 269 274 279
182 189 187 191 196 195 205 204 208 209 217 216 215 215 215 216 217 219 222 225 226 226 227 227 228 231 226 224 232 230 230 233 240 242 244 245 244 246 249 251 251 250 252 254 259 264 268 274 279
182 183 185 183 187 199 201 198 204 214 219 216 216 216 216 215 217 218 222 225 227 229 230 231 231 232 230 232 235 237 239 242 243 245 246 246 247 246 250 250 250 250 253 256 259 263 269 275 278
182 185 183 186 190 207 189 208 216 212 217 220 215 217 219 222 223 225 229 232 234 232 231 233 237 234 235 235 235 240 244 245 244 247 248 248 247 249 250 248 250 251 254 256 260 264 269 275 279
176 183 175 174 179 198 199 215 212 212 213 217 225 221 222 225 229 231 234 236 237 236 236 236 238 238 239 242 241 242 246 247 250 250 251 250 249 249 247 248 250 253 255 258 262 266 269 273 278
185 176 170 165 188 213 211 218 213 211 214 228 219 218 220 227 231 234 237 236 237 237 239 240 240 243 244 244 244 245 246 249 252 253 250 251 249 248 248 250 252 256 260 261 264 266 269 273 278
168 159 167 182 171 176 212 213 213 213 211 217 210 213 219 223 228 229 233 236 237 239 240 239 242 246 246 247 247 248 247 251 254 251 251 252 253 255 255 255 258 260 260 261 266 269 272 276 279
165 169 171 188 201 203 200 197 210 212 211 209 206 214 218 216 221 227 231 236 238 242 238 239 242 247 251 252 251 251 251 252 251 252 252 254 255 257 257 258 261 263 262 264 268 271 273 277 279
166 169 169 169 178 184 196 202 202 206 212 209 210 209 211 218 227 226 231 236 238 241 240 241 245 248 250 252 254 253 253 252 253 253 255 254 256 255 257 255 261 265 265 269 273 274 275 277 279
179 178 179 153 159 162 187 205 195 179 189 184 183 186 195 204 211 218 225 233 240 244 245 246 247 249 252 253 253 255 255 255 256 254 254 256 256 257 256 258 262 264 267 272 275 277 277 277 279
169 185 191 196 179 187 198 202 194 191 188 180 182 179 189 199 207 215 224 232 239 245 250 253 253 254 254 255 254 254 255 256 256 255 254 256 257 259 259 258 263 265 270 273 273 276 278 279 280
175 193 198 195 199 196 192 217 206 203 197 179 179 184 189 201 210 218 229 240 248 254 258 259 259 258 257 256 257 257 258 257 257 256 256 257 258 258 258 262 266 268 271 270 274 277 279 280 280
186 193 199 207 230 224 219 235 245 214 207 202 194 194 202 210 222 235 243 250 256 259 264 266 264 262 259 257 257 258 259 258 258 257 257 257 258 260 262 264 267 269 270 271 274 277 278 280 281